<?xml version="1.0" encoding="UTF-8" standalone="no" ?>
<gpx xmlns="http://www.topografix.com/GPX/1/1" xmlns:xsi="http://www.w3.org/2001/XMLSchema-instance" xsi:schemaLocation="http://www.topografix.com/GPX/1/1 http://www.topografix.com/GPX/1/1/gpx.xsd" version="1.1" creator="VisuGPX - https://www.visugpx.com">
  <metadata>
    <name>Brosses Chatel Magny Sausois 23km</name>
    <desc><![CDATA[Brosses - Châtel Censoir - Magny - le Saussois  Dist 22km
Parking Cimetière Brosses]]></desc>
  </metadata>
  <trk>
    <name><![CDATA[Brosses Chatel Magny Sausois 23km]]></name>
    <extensions>
      <line xmlns="http://www.topografix.com/GPX/gpx_style/0/2">
        <color>0000FF</color>
        <width>4</width>
      </line>
    </extensions>
    <trkseg>
      <trkpt lat="47.53543" lon="3.69118">
        <ele>205</ele>
        <time>2016-09-15T11:25:06.000Z</time>
      </trkpt>
      <trkpt lat="47.53551" lon="3.69123">
        <ele>205</ele>
        <time>2016-09-15T11:25:06.000Z</time>
      </trkpt>
      <trkpt lat="47.53546" lon="3.69133">
        <ele>205</ele>
        <time>2016-09-15T11:25:06.000Z</time>
      </trkpt>
      <trkpt lat="47.53551" lon="3.69123">
        <ele>205</ele>
        <time>2016-09-15T11:25:06.000Z</time>
      </trkpt>
      <trkpt lat="47.53558" lon="3.6912">
        <ele>206</ele>
        <time>2016-09-15T11:25:06.000Z</time>
      </trkpt>
      <trkpt lat="47.53551" lon="3.6911">
        <ele>206</ele>
        <time>2016-09-15T11:25:06.000Z</time>
      </trkpt>
      <trkpt lat="47.53558" lon="3.69104">
        <ele>206</ele>
        <time>2016-09-15T11:25:06.000Z</time>
      </trkpt>
      <trkpt lat="47.53565" lon="3.691">
        <ele>207</ele>
        <time>2016-09-15T11:25:06.000Z</time>
      </trkpt>
      <trkpt lat="47.53572" lon="3.69091">
        <ele>208</ele>
        <time>2016-09-15T11:25:06.000Z</time>
      </trkpt>
      <trkpt lat="47.53579" lon="3.69087">
        <ele>208</ele>
        <time>2016-09-15T11:25:06.000Z</time>
      </trkpt>
      <trkpt lat="47.53585" lon="3.69078">
        <ele>209</ele>
        <time>2016-09-15T11:25:06.000Z</time>
      </trkpt>
      <trkpt lat="47.53592" lon="3.69071">
        <ele>209</ele>
        <time>2016-09-15T11:25:06.000Z</time>
      </trkpt>
      <trkpt lat="47.53599" lon="3.69065">
        <ele>210</ele>
        <time>2016-09-15T11:25:06.000Z</time>
      </trkpt>
      <trkpt lat="47.536" lon="3.69066">
        <ele>210</ele>
        <time>2016-09-15T11:25:06.000Z</time>
      </trkpt>
      <trkpt lat="47.53695" lon="3.69009">
        <ele>215</ele>
        <time>2016-09-15T11:25:06.000Z</time>
      </trkpt>
      <trkpt lat="47.53772" lon="3.68978">
        <ele>216</ele>
        <time>2016-09-15T11:25:06.000Z</time>
      </trkpt>
      <trkpt lat="47.53788" lon="3.68958">
        <ele>215</ele>
        <time>2016-09-15T11:25:06.000Z</time>
      </trkpt>
      <trkpt lat="47.53791" lon="3.68882">
        <ele>210</ele>
        <time>2016-09-15T11:25:06.000Z</time>
      </trkpt>
      <trkpt lat="47.53826" lon="3.68823">
        <ele>205</ele>
        <time>2016-09-15T11:25:06.000Z</time>
      </trkpt>
      <trkpt lat="47.53813" lon="3.68706">
        <ele>199</ele>
        <time>2016-09-15T11:25:06.000Z</time>
      </trkpt>
      <trkpt lat="47.53818" lon="3.68511">
        <ele>183</ele>
        <time>2016-09-15T11:25:06.000Z</time>
      </trkpt>
      <trkpt lat="47.53747" lon="3.68449">
        <ele>172</ele>
        <time>2016-09-15T11:25:06.000Z</time>
      </trkpt>
      <trkpt lat="47.53838" lon="3.68368">
        <ele>170</ele>
        <time>2016-09-15T11:25:06.000Z</time>
      </trkpt>
      <trkpt lat="47.53937" lon="3.68368">
        <ele>169</ele>
        <time>2016-09-15T11:25:06.000Z</time>
      </trkpt>
      <trkpt lat="47.54129" lon="3.68276">
        <ele>173</ele>
        <time>2016-09-15T11:25:06.000Z</time>
      </trkpt>
      <trkpt lat="47.54121" lon="3.68133">
        <ele>167</ele>
        <time>2016-09-15T11:25:06.000Z</time>
      </trkpt>
      <trkpt lat="47.54073" lon="3.68026">
        <ele>177</ele>
        <time>2016-09-15T11:25:06.000Z</time>
      </trkpt>
      <trkpt lat="47.54034" lon="3.67948">
        <ele>185</ele>
        <time>2016-09-15T11:25:06.000Z</time>
      </trkpt>
      <trkpt lat="47.53985" lon="3.67837">
        <ele>191</ele>
        <time>2016-09-15T11:25:06.000Z</time>
      </trkpt>
      <trkpt lat="47.53948" lon="3.67787">
        <ele>195</ele>
        <time>2016-09-15T11:25:06.000Z</time>
      </trkpt>
      <trkpt lat="47.53897" lon="3.67556">
        <ele>211</ele>
        <time>2016-09-15T11:25:06.000Z</time>
      </trkpt>
      <trkpt lat="47.53951" lon="3.67538">
        <ele>212</ele>
        <time>2016-09-15T11:25:06.000Z</time>
      </trkpt>
      <trkpt lat="47.5402" lon="3.67413">
        <ele>210</ele>
        <time>2016-09-15T11:25:06.000Z</time>
      </trkpt>
      <trkpt lat="47.5405" lon="3.67314">
        <ele>207</ele>
        <time>2016-09-15T11:25:06.000Z</time>
      </trkpt>
      <trkpt lat="47.54087" lon="3.67235">
        <ele>211</ele>
        <time>2016-09-15T11:25:06.000Z</time>
      </trkpt>
      <trkpt lat="47.54074" lon="3.67162">
        <ele>215</ele>
        <time>2016-09-15T11:25:06.000Z</time>
      </trkpt>
      <trkpt lat="47.54091" lon="3.67056">
        <ele>220</ele>
        <time>2016-09-15T11:25:06.000Z</time>
      </trkpt>
      <trkpt lat="47.54121" lon="3.6701">
        <ele>222</ele>
        <time>2016-09-15T11:25:06.000Z</time>
      </trkpt>
      <trkpt lat="47.54135" lon="3.66941">
        <ele>225</ele>
        <time>2016-09-15T11:25:06.000Z</time>
      </trkpt>
      <trkpt lat="47.54147" lon="3.66875">
        <ele>225</ele>
        <time>2016-09-15T11:25:06.000Z</time>
      </trkpt>
      <trkpt lat="47.54196" lon="3.66757">
        <ele>224</ele>
        <time>2016-09-15T11:25:06.000Z</time>
      </trkpt>
      <trkpt lat="47.54199" lon="3.66657">
        <ele>222</ele>
        <time>2016-09-15T11:25:06.000Z</time>
      </trkpt>
      <trkpt lat="47.54223" lon="3.66571">
        <ele>221</ele>
        <time>2016-09-15T11:25:06.000Z</time>
      </trkpt>
      <trkpt lat="47.54178" lon="3.6654">
        <ele>217</ele>
        <time>2016-09-15T11:25:06.000Z</time>
      </trkpt>
      <trkpt lat="47.54172" lon="3.66535">
        <ele>217</ele>
        <time>2016-09-15T11:25:06.000Z</time>
      </trkpt>
      <trkpt lat="47.54151" lon="3.6639">
        <ele>214</ele>
        <time>2016-09-15T11:25:06.000Z</time>
      </trkpt>
      <trkpt lat="47.54114" lon="3.66266">
        <ele>211</ele>
        <time>2016-09-15T11:25:06.000Z</time>
      </trkpt>
      <trkpt lat="47.5405" lon="3.66102">
        <ele>213</ele>
        <time>2016-09-15T11:25:06.000Z</time>
      </trkpt>
      <trkpt lat="47.54038" lon="3.66019">
        <ele>208</ele>
        <time>2016-09-15T11:25:06.000Z</time>
      </trkpt>
      <trkpt lat="47.53998" lon="3.65988">
        <ele>205</ele>
        <time>2016-09-15T11:25:06.000Z</time>
      </trkpt>
      <trkpt lat="47.53986" lon="3.65805">
        <ele>206</ele>
        <time>2016-09-15T11:25:06.000Z</time>
      </trkpt>
      <trkpt lat="47.53953" lon="3.65601">
        <ele>208</ele>
        <time>2016-09-15T11:25:06.000Z</time>
      </trkpt>
      <trkpt lat="47.53893" lon="3.65477">
        <ele>208</ele>
        <time>2016-09-15T11:25:06.000Z</time>
      </trkpt>
      <trkpt lat="47.53921" lon="3.65444">
        <ele>207</ele>
        <time>2016-09-15T11:25:06.000Z</time>
      </trkpt>
      <trkpt lat="47.53856" lon="3.65357">
        <ele>206</ele>
        <time>2016-09-15T11:25:06.000Z</time>
      </trkpt>
      <trkpt lat="47.53734" lon="3.65247">
        <ele>205</ele>
        <time>2016-09-15T11:25:06.000Z</time>
      </trkpt>
      <trkpt lat="47.53673" lon="3.65086">
        <ele>196</ele>
        <time>2016-09-15T11:25:06.000Z</time>
      </trkpt>
      <trkpt lat="47.53668" lon="3.65093">
        <ele>197</ele>
        <time>2016-09-15T11:25:06.000Z</time>
      </trkpt>
      <trkpt lat="47.53667" lon="3.65081">
        <ele>196</ele>
        <time>2016-09-15T11:25:06.000Z</time>
      </trkpt>
      <trkpt lat="47.53663" lon="3.65068">
        <ele>196</ele>
        <time>2016-09-15T11:25:06.000Z</time>
      </trkpt>
      <trkpt lat="47.5363" lon="3.6503">
        <ele>195</ele>
        <time>2016-09-15T11:25:06.000Z</time>
      </trkpt>
      <trkpt lat="47.53621" lon="3.6499">
        <ele>194</ele>
        <time>2016-09-15T11:25:06.000Z</time>
      </trkpt>
      <trkpt lat="47.53636" lon="3.64979">
        <ele>194</ele>
        <time>2016-09-15T11:25:06.000Z</time>
      </trkpt>
      <trkpt lat="47.53579" lon="3.64818">
        <ele>190</ele>
        <time>2016-09-15T11:25:06.000Z</time>
      </trkpt>
      <trkpt lat="47.53491" lon="3.6464">
        <ele>185</ele>
        <time>2016-09-15T11:25:06.000Z</time>
      </trkpt>
      <trkpt lat="47.53497" lon="3.64554">
        <ele>180</ele>
        <time>2016-09-15T11:25:06.000Z</time>
      </trkpt>
      <trkpt lat="47.53471" lon="3.64404">
        <ele>178</ele>
        <time>2016-09-15T11:25:06.000Z</time>
      </trkpt>
      <trkpt lat="47.53471" lon="3.64238">
        <ele>174</ele>
        <time>2016-09-15T11:25:06.000Z</time>
      </trkpt>
      <trkpt lat="47.53491" lon="3.64056">
        <ele>171</ele>
        <time>2016-09-15T11:25:06.000Z</time>
      </trkpt>
      <trkpt lat="47.53504" lon="3.63877">
        <ele>172</ele>
        <time>2016-09-15T11:25:06.000Z</time>
      </trkpt>
      <trkpt lat="47.53515" lon="3.63737">
        <ele>170</ele>
        <time>2016-09-15T11:25:06.000Z</time>
      </trkpt>
      <trkpt lat="47.53465" lon="3.63583">
        <ele>157</ele>
        <time>2016-09-15T11:25:06.000Z</time>
      </trkpt>
      <trkpt lat="47.53452" lon="3.6351">
        <ele>150</ele>
        <time>2016-09-15T11:25:06.000Z</time>
      </trkpt>
      <trkpt lat="47.53355" lon="3.63511">
        <ele>150</ele>
        <time>2016-09-15T11:25:06.000Z</time>
      </trkpt>
      <trkpt lat="47.53317" lon="3.63523">
        <ele>151</ele>
        <time>2016-09-15T11:25:06.000Z</time>
      </trkpt>
      <trkpt lat="47.53307" lon="3.6342">
        <ele>136</ele>
        <time>2016-09-15T11:25:06.000Z</time>
      </trkpt>
      <trkpt lat="47.53332" lon="3.63378">
        <ele>134</ele>
        <time>2016-09-15T11:25:06.000Z</time>
      </trkpt>
      <trkpt lat="47.53346" lon="3.63322">
        <ele>134</ele>
        <time>2016-09-15T11:25:06.000Z</time>
      </trkpt>
      <trkpt lat="47.53349" lon="3.63322">
        <ele>134</ele>
        <time>2016-09-15T11:25:06.000Z</time>
      </trkpt>
      <trkpt lat="47.53355" lon="3.63308">
        <ele>133</ele>
        <time>2016-09-15T11:25:06.000Z</time>
      </trkpt>
      <trkpt lat="47.53363" lon="3.63269">
        <ele>132</ele>
        <time>2016-09-15T11:25:06.000Z</time>
      </trkpt>
      <trkpt lat="47.5331" lon="3.63178">
        <ele>132</ele>
        <time>2016-09-15T11:25:06.000Z</time>
      </trkpt>
      <trkpt lat="47.5334" lon="3.63079">
        <ele>131</ele>
        <time>2016-09-15T11:25:06.000Z</time>
      </trkpt>
      <trkpt lat="47.53371" lon="3.62954">
        <ele>130</ele>
        <time>2016-09-15T11:25:06.000Z</time>
      </trkpt>
      <trkpt lat="47.53351" lon="3.62724">
        <ele>131</ele>
        <time>2016-09-15T11:25:06.000Z</time>
      </trkpt>
      <trkpt lat="47.53393" lon="3.62559">
        <ele>137</ele>
        <time>2016-09-15T11:25:06.000Z</time>
      </trkpt>
      <trkpt lat="47.53353" lon="3.62485">
        <ele>136</ele>
        <time>2016-09-15T11:25:06.000Z</time>
      </trkpt>
      <trkpt lat="47.53333" lon="3.62325">
        <ele>135</ele>
        <time>2016-09-15T11:25:06.000Z</time>
      </trkpt>
      <trkpt lat="47.53375" lon="3.62177">
        <ele>134</ele>
        <time>2016-09-15T11:25:06.000Z</time>
      </trkpt>
      <trkpt lat="47.53559" lon="3.62154">
        <ele>148</ele>
        <time>2016-09-15T11:25:06.000Z</time>
      </trkpt>
      <trkpt lat="47.53775" lon="3.6195">
        <ele>155</ele>
        <time>2016-09-15T11:25:06.000Z</time>
      </trkpt>
      <trkpt lat="47.5379" lon="3.61939">
        <ele>155</ele>
        <time>2016-09-15T11:25:06.000Z</time>
      </trkpt>
      <trkpt lat="47.53797" lon="3.61933">
        <ele>155</ele>
        <time>2016-09-15T11:25:06.000Z</time>
      </trkpt>
      <trkpt lat="47.53804" lon="3.61926">
        <ele>154</ele>
        <time>2016-09-15T11:25:06.000Z</time>
      </trkpt>
      <trkpt lat="47.53813" lon="3.6192">
        <ele>154</ele>
        <time>2016-09-15T11:25:06.000Z</time>
      </trkpt>
      <trkpt lat="47.53829" lon="3.61914">
        <ele>154</ele>
        <time>2016-09-15T11:25:06.000Z</time>
      </trkpt>
      <trkpt lat="47.53835" lon="3.61914">
        <ele>154</ele>
        <time>2016-09-15T11:25:06.000Z</time>
      </trkpt>
      <trkpt lat="47.53849" lon="3.61904">
        <ele>154</ele>
        <time>2016-09-15T11:25:06.000Z</time>
      </trkpt>
      <trkpt lat="47.53867" lon="3.61895">
        <ele>154</ele>
        <time>2016-09-15T11:25:06.000Z</time>
      </trkpt>
      <trkpt lat="47.53876" lon="3.61891">
        <ele>154</ele>
        <time>2016-09-15T11:25:06.000Z</time>
      </trkpt>
      <trkpt lat="47.53887" lon="3.61882">
        <ele>154</ele>
        <time>2016-09-15T11:25:06.000Z</time>
      </trkpt>
      <trkpt lat="47.53912" lon="3.61862">
        <ele>155</ele>
        <time>2016-09-15T11:25:06.000Z</time>
      </trkpt>
      <trkpt lat="47.53919" lon="3.61856">
        <ele>155</ele>
        <time>2016-09-15T11:25:06.000Z</time>
      </trkpt>
      <trkpt lat="47.53931" lon="3.61843">
        <ele>156</ele>
        <time>2016-09-15T11:25:06.000Z</time>
      </trkpt>
      <trkpt lat="47.53942" lon="3.61833">
        <ele>157</ele>
        <time>2016-09-15T11:25:06.000Z</time>
      </trkpt>
      <trkpt lat="47.5394" lon="3.6182">
        <ele>158</ele>
        <time>2016-09-15T11:25:06.000Z</time>
      </trkpt>
      <trkpt lat="47.53947" lon="3.61813">
        <ele>158</ele>
        <time>2016-09-15T11:25:06.000Z</time>
      </trkpt>
      <trkpt lat="47.53956" lon="3.61814">
        <ele>158</ele>
        <time>2016-09-15T11:25:06.000Z</time>
      </trkpt>
      <trkpt lat="47.53961" lon="3.61809">
        <ele>159</ele>
        <time>2016-09-15T11:25:06.000Z</time>
      </trkpt>
      <trkpt lat="47.5413" lon="3.61979">
        <ele>167</ele>
        <time>2016-09-15T11:25:06.000Z</time>
      </trkpt>
      <trkpt lat="47.54298" lon="3.62298">
        <ele>173</ele>
        <time>2016-09-15T11:25:06.000Z</time>
      </trkpt>
      <trkpt lat="47.54292" lon="3.62297">
        <ele>173</ele>
        <time>2016-09-15T11:25:06.000Z</time>
      </trkpt>
      <trkpt lat="47.54283" lon="3.623">
        <ele>172</ele>
        <time>2016-09-15T11:25:06.000Z</time>
      </trkpt>
      <trkpt lat="47.5429" lon="3.62297">
        <ele>173</ele>
        <time>2016-09-15T11:25:06.000Z</time>
      </trkpt>
      <trkpt lat="47.54283" lon="3.623">
        <ele>172</ele>
        <time>2016-09-15T11:25:06.000Z</time>
      </trkpt>
      <trkpt lat="47.5429" lon="3.6231">
        <ele>172</ele>
        <time>2016-09-15T11:25:06.000Z</time>
      </trkpt>
      <trkpt lat="47.54283" lon="3.62303">
        <ele>172</ele>
        <time>2016-09-15T11:25:06.000Z</time>
      </trkpt>
      <trkpt lat="47.54288" lon="3.62313">
        <ele>172</ele>
        <time>2016-09-15T11:25:06.000Z</time>
      </trkpt>
      <trkpt lat="47.54275" lon="3.62321">
        <ele>172</ele>
        <time>2016-09-15T11:25:06.000Z</time>
      </trkpt>
      <trkpt lat="47.54263" lon="3.62361">
        <ele>170</ele>
        <time>2016-09-15T11:25:06.000Z</time>
      </trkpt>
      <trkpt lat="47.54327" lon="3.62512">
        <ele>162</ele>
        <time>2016-09-15T11:25:06.000Z</time>
      </trkpt>
      <trkpt lat="47.54403" lon="3.6251">
        <ele>162</ele>
        <time>2016-09-15T11:25:06.000Z</time>
      </trkpt>
      <trkpt lat="47.54471" lon="3.62502">
        <ele>162</ele>
        <time>2016-09-15T11:25:06.000Z</time>
      </trkpt>
      <trkpt lat="47.54606" lon="3.62658">
        <ele>140</ele>
        <time>2016-09-15T11:25:06.000Z</time>
      </trkpt>
      <trkpt lat="47.54681" lon="3.6265">
        <ele>136</ele>
        <time>2016-09-15T11:25:06.000Z</time>
      </trkpt>
      <trkpt lat="47.54746" lon="3.62615">
        <ele>137</ele>
        <time>2016-09-15T11:25:06.000Z</time>
      </trkpt>
      <trkpt lat="47.54818" lon="3.62613">
        <ele>135</ele>
        <time>2016-09-15T11:25:06.000Z</time>
      </trkpt>
      <trkpt lat="47.54888" lon="3.62588">
        <ele>135</ele>
        <time>2016-09-15T11:25:06.000Z</time>
      </trkpt>
      <trkpt lat="47.55005" lon="3.62615">
        <ele>133</ele>
        <time>2016-09-15T11:25:06.000Z</time>
      </trkpt>
      <trkpt lat="47.5523" lon="3.62627">
        <ele>130</ele>
        <time>2016-09-15T11:25:06.000Z</time>
      </trkpt>
      <trkpt lat="47.55288" lon="3.62645">
        <ele>131</ele>
        <time>2016-09-15T11:25:06.000Z</time>
      </trkpt>
      <trkpt lat="47.55302" lon="3.62602">
        <ele>136</ele>
        <time>2016-09-15T11:25:06.000Z</time>
      </trkpt>
      <trkpt lat="47.55396" lon="3.62611">
        <ele>144</ele>
        <time>2016-09-15T11:25:06.000Z</time>
      </trkpt>
      <trkpt lat="47.5552" lon="3.62654">
        <ele>152</ele>
        <time>2016-09-15T11:25:06.000Z</time>
      </trkpt>
      <trkpt lat="47.55645" lon="3.62693">
        <ele>159</ele>
        <time>2016-09-15T11:25:06.000Z</time>
      </trkpt>
      <trkpt lat="47.55755" lon="3.62752">
        <ele>166</ele>
        <time>2016-09-15T11:25:06.000Z</time>
      </trkpt>
      <trkpt lat="47.55842" lon="3.62818">
        <ele>171</ele>
        <time>2016-09-15T11:25:06.000Z</time>
      </trkpt>
      <trkpt lat="47.55927" lon="3.6284">
        <ele>181</ele>
        <time>2016-09-15T11:25:06.000Z</time>
      </trkpt>
      <trkpt lat="47.56079" lon="3.63116">
        <ele>186</ele>
        <time>2016-09-15T11:25:06.000Z</time>
      </trkpt>
      <trkpt lat="47.56127" lon="3.63207">
        <ele>186</ele>
        <time>2016-09-15T11:25:06.000Z</time>
      </trkpt>
      <trkpt lat="47.56155" lon="3.6331">
        <ele>184</ele>
        <time>2016-09-15T11:25:06.000Z</time>
      </trkpt>
      <trkpt lat="47.5615" lon="3.63403">
        <ele>184</ele>
        <time>2016-09-15T11:25:06.000Z</time>
      </trkpt>
      <trkpt lat="47.56171" lon="3.63493">
        <ele>182</ele>
        <time>2016-09-15T11:25:06.000Z</time>
      </trkpt>
      <trkpt lat="47.56185" lon="3.6369">
        <ele>176</ele>
        <time>2016-09-15T11:25:06.000Z</time>
      </trkpt>
      <trkpt lat="47.56168" lon="3.63779">
        <ele>172</ele>
        <time>2016-09-15T11:25:06.000Z</time>
      </trkpt>
      <trkpt lat="47.56145" lon="3.63871">
        <ele>167</ele>
        <time>2016-09-15T11:25:06.000Z</time>
      </trkpt>
      <trkpt lat="47.56131" lon="3.63904">
        <ele>165</ele>
        <time>2016-09-15T11:25:06.000Z</time>
      </trkpt>
      <trkpt lat="47.56128" lon="3.63957">
        <ele>161</ele>
        <time>2016-09-15T11:25:06.000Z</time>
      </trkpt>
      <trkpt lat="47.56084" lon="3.64063">
        <ele>156</ele>
        <time>2016-09-15T11:25:06.000Z</time>
      </trkpt>
      <trkpt lat="47.56054" lon="3.64118">
        <ele>153</ele>
        <time>2016-09-15T11:25:06.000Z</time>
      </trkpt>
      <trkpt lat="47.56069" lon="3.64182">
        <ele>151</ele>
        <time>2016-09-15T11:25:06.000Z</time>
      </trkpt>
      <trkpt lat="47.56163" lon="3.64231">
        <ele>143</ele>
        <time>2016-09-15T11:25:06.000Z</time>
      </trkpt>
      <trkpt lat="47.56224" lon="3.64202">
        <ele>139</ele>
        <time>2016-09-15T11:25:06.000Z</time>
      </trkpt>
      <trkpt lat="47.56295" lon="3.64131">
        <ele>133</ele>
        <time>2016-09-15T11:25:06.000Z</time>
      </trkpt>
      <trkpt lat="47.56322" lon="3.64138">
        <ele>131</ele>
        <time>2016-09-15T11:25:06.000Z</time>
      </trkpt>
      <trkpt lat="47.56395" lon="3.6417">
        <ele>129</ele>
        <time>2016-09-15T11:25:06.000Z</time>
      </trkpt>
      <trkpt lat="47.56452" lon="3.64135">
        <ele>127</ele>
        <time>2016-09-15T11:25:06.000Z</time>
      </trkpt>
      <trkpt lat="47.56605" lon="3.64122">
        <ele>129</ele>
        <time>2016-09-15T11:25:06.000Z</time>
      </trkpt>
      <trkpt lat="47.56637" lon="3.64123">
        <ele>138</ele>
        <time>2016-09-15T11:25:06.000Z</time>
      </trkpt>
      <trkpt lat="47.56625" lon="3.64189">
        <ele>140</ele>
        <time>2016-09-15T11:25:06.000Z</time>
      </trkpt>
      <trkpt lat="47.56591" lon="3.64368">
        <ele>145</ele>
        <time>2016-09-15T11:25:06.000Z</time>
      </trkpt>
      <trkpt lat="47.56566" lon="3.64596">
        <ele>139</ele>
        <time>2016-09-15T11:25:06.000Z</time>
      </trkpt>
      <trkpt lat="47.56563" lon="3.64829">
        <ele>153</ele>
        <time>2016-09-15T11:25:06.000Z</time>
      </trkpt>
      <trkpt lat="47.56551" lon="3.64951">
        <ele>147</ele>
        <time>2016-09-15T11:25:06.000Z</time>
      </trkpt>
      <trkpt lat="47.56568" lon="3.64978">
        <ele>159</ele>
        <time>2016-09-15T11:25:06.000Z</time>
      </trkpt>
      <trkpt lat="47.56584" lon="3.65009">
        <ele>170</ele>
        <time>2016-09-15T11:25:06.000Z</time>
      </trkpt>
      <trkpt lat="47.56583" lon="3.65062">
        <ele>173</ele>
        <time>2016-09-15T11:25:06.000Z</time>
      </trkpt>
      <trkpt lat="47.56612" lon="3.65076">
        <ele>177</ele>
        <time>2016-09-15T11:25:06.000Z</time>
      </trkpt>
      <trkpt lat="47.56586" lon="3.65198">
        <ele>179</ele>
        <time>2016-09-15T11:25:06.000Z</time>
      </trkpt>
      <trkpt lat="47.56556" lon="3.6531">
        <ele>181</ele>
        <time>2016-09-15T11:25:06.000Z</time>
      </trkpt>
      <trkpt lat="47.56528" lon="3.65369">
        <ele>181</ele>
        <time>2016-09-15T11:25:06.000Z</time>
      </trkpt>
      <trkpt lat="47.56497" lon="3.65375">
        <ele>182</ele>
        <time>2016-09-15T11:25:06.000Z</time>
      </trkpt>
      <trkpt lat="47.56431" lon="3.65427">
        <ele>184</ele>
        <time>2016-09-15T11:25:06.000Z</time>
      </trkpt>
      <trkpt lat="47.56379" lon="3.65465">
        <ele>184</ele>
        <time>2016-09-15T11:25:06.000Z</time>
      </trkpt>
      <trkpt lat="47.56373" lon="3.65464">
        <ele>184</ele>
        <time>2016-09-15T11:25:06.000Z</time>
      </trkpt>
      <trkpt lat="47.56366" lon="3.65457">
        <ele>184</ele>
        <time>2016-09-15T11:25:06.000Z</time>
      </trkpt>
      <trkpt lat="47.56366" lon="3.6547">
        <ele>184</ele>
        <time>2016-09-15T11:25:06.000Z</time>
      </trkpt>
      <trkpt lat="47.56361" lon="3.65483">
        <ele>183</ele>
        <time>2016-09-15T11:25:06.000Z</time>
      </trkpt>
      <trkpt lat="47.56343" lon="3.65493">
        <ele>183</ele>
        <time>2016-09-15T11:25:06.000Z</time>
      </trkpt>
      <trkpt lat="47.56337" lon="3.65493">
        <ele>183</ele>
        <time>2016-09-15T11:25:06.000Z</time>
      </trkpt>
      <trkpt lat="47.5633" lon="3.65483">
        <ele>182</ele>
        <time>2016-09-15T11:25:06.000Z</time>
      </trkpt>
      <trkpt lat="47.56323" lon="3.65479">
        <ele>182</ele>
        <time>2016-09-15T11:25:06.000Z</time>
      </trkpt>
      <trkpt lat="47.56312" lon="3.65479">
        <ele>182</ele>
        <time>2016-09-15T11:25:06.000Z</time>
      </trkpt>
      <trkpt lat="47.56303" lon="3.65482">
        <ele>182</ele>
        <time>2016-09-15T11:25:06.000Z</time>
      </trkpt>
      <trkpt lat="47.56298" lon="3.65492">
        <ele>182</ele>
        <time>2016-09-15T11:25:06.000Z</time>
      </trkpt>
      <trkpt lat="47.56305" lon="3.65495">
        <ele>182</ele>
        <time>2016-09-15T11:25:06.000Z</time>
      </trkpt>
      <trkpt lat="47.56307" lon="3.65505">
        <ele>183</ele>
        <time>2016-09-15T11:25:06.000Z</time>
      </trkpt>
      <trkpt lat="47.56305" lon="3.65495">
        <ele>182</ele>
        <time>2016-09-15T11:25:06.000Z</time>
      </trkpt>
      <trkpt lat="47.56307" lon="3.65505">
        <ele>183</ele>
        <time>2016-09-15T11:25:06.000Z</time>
      </trkpt>
      <trkpt lat="47.56316" lon="3.65509">
        <ele>183</ele>
        <time>2016-09-15T11:25:06.000Z</time>
      </trkpt>
      <trkpt lat="47.56315" lon="3.65504">
        <ele>183</ele>
        <time>2016-09-15T11:25:06.000Z</time>
      </trkpt>
      <trkpt lat="47.56167" lon="3.655">
        <ele>184</ele>
        <time>2016-09-15T11:25:06.000Z</time>
      </trkpt>
      <trkpt lat="47.56057" lon="3.65461">
        <ele>187</ele>
        <time>2016-09-15T11:25:06.000Z</time>
      </trkpt>
      <trkpt lat="47.56027" lon="3.6551">
        <ele>188</ele>
        <time>2016-09-15T11:25:06.000Z</time>
      </trkpt>
      <trkpt lat="47.56025" lon="3.6551">
        <ele>188</ele>
        <time>2016-09-15T11:25:06.000Z</time>
      </trkpt>
      <trkpt lat="47.5602" lon="3.65495">
        <ele>189</ele>
        <time>2016-09-15T11:25:06.000Z</time>
      </trkpt>
      <trkpt lat="47.56022" lon="3.65508">
        <ele>189</ele>
        <time>2016-09-15T11:25:06.000Z</time>
      </trkpt>
      <trkpt lat="47.56017" lon="3.65518">
        <ele>189</ele>
        <time>2016-09-15T11:25:06.000Z</time>
      </trkpt>
      <trkpt lat="47.56022" lon="3.65508">
        <ele>189</ele>
        <time>2016-09-15T11:25:06.000Z</time>
      </trkpt>
      <trkpt lat="47.5602" lon="3.65495">
        <ele>189</ele>
        <time>2016-09-15T11:25:06.000Z</time>
      </trkpt>
      <trkpt lat="47.56011" lon="3.65478">
        <ele>189</ele>
        <time>2016-09-15T11:25:06.000Z</time>
      </trkpt>
      <trkpt lat="47.56004" lon="3.65468">
        <ele>189</ele>
        <time>2016-09-15T11:25:06.000Z</time>
      </trkpt>
      <trkpt lat="47.55997" lon="3.65458">
        <ele>189</ele>
        <time>2016-09-15T11:25:06.000Z</time>
      </trkpt>
      <trkpt lat="47.55995" lon="3.65441">
        <ele>189</ele>
        <time>2016-09-15T11:25:06.000Z</time>
      </trkpt>
      <trkpt lat="47.55986" lon="3.65431">
        <ele>189</ele>
        <time>2016-09-15T11:25:06.000Z</time>
      </trkpt>
      <trkpt lat="47.5598" lon="3.65417">
        <ele>189</ele>
        <time>2016-09-15T11:25:06.000Z</time>
      </trkpt>
      <trkpt lat="47.55966" lon="3.6542">
        <ele>190</ele>
        <time>2016-09-15T11:25:06.000Z</time>
      </trkpt>
      <trkpt lat="47.55964" lon="3.6541">
        <ele>190</ele>
        <time>2016-09-15T11:25:06.000Z</time>
      </trkpt>
      <trkpt lat="47.55955" lon="3.654">
        <ele>190</ele>
        <time>2016-09-15T11:25:06.000Z</time>
      </trkpt>
      <trkpt lat="47.55949" lon="3.65387">
        <ele>190</ele>
        <time>2016-09-15T11:25:06.000Z</time>
      </trkpt>
      <trkpt lat="47.55953" lon="3.65397">
        <ele>190</ele>
        <time>2016-09-15T11:25:06.000Z</time>
      </trkpt>
      <trkpt lat="47.55962" lon="3.65384">
        <ele>189</ele>
        <time>2016-09-15T11:25:06.000Z</time>
      </trkpt>
      <trkpt lat="47.5595" lon="3.65372">
        <ele>189</ele>
        <time>2016-09-15T11:25:06.000Z</time>
      </trkpt>
      <trkpt lat="47.55815" lon="3.65156">
        <ele>179</ele>
        <time>2016-09-15T11:25:06.000Z</time>
      </trkpt>
      <trkpt lat="47.55807" lon="3.65083">
        <ele>172</ele>
        <time>2016-09-15T11:25:06.000Z</time>
      </trkpt>
      <trkpt lat="47.55765" lon="3.64869">
        <ele>160</ele>
        <time>2016-09-15T11:25:06.000Z</time>
      </trkpt>
      <trkpt lat="47.55746" lon="3.64729">
        <ele>150</ele>
        <time>2016-09-15T11:25:06.000Z</time>
      </trkpt>
      <trkpt lat="47.5574" lon="3.64666">
        <ele>143</ele>
        <time>2016-09-15T11:25:06.000Z</time>
      </trkpt>
      <trkpt lat="47.55729" lon="3.64599">
        <ele>138</ele>
        <time>2016-09-15T11:25:06.000Z</time>
      </trkpt>
      <trkpt lat="47.55699" lon="3.64475">
        <ele>134</ele>
        <time>2016-09-15T11:25:06.000Z</time>
      </trkpt>
      <trkpt lat="47.556" lon="3.64479">
        <ele>139</ele>
        <time>2016-09-15T11:25:06.000Z</time>
      </trkpt>
      <trkpt lat="47.55592" lon="3.64484">
        <ele>140</ele>
        <time>2016-09-15T11:25:06.000Z</time>
      </trkpt>
      <trkpt lat="47.55586" lon="3.64487">
        <ele>140</ele>
        <time>2016-09-15T11:25:06.000Z</time>
      </trkpt>
      <trkpt lat="47.55583" lon="3.64501">
        <ele>141</ele>
        <time>2016-09-15T11:25:06.000Z</time>
      </trkpt>
      <trkpt lat="47.55576" lon="3.64504">
        <ele>142</ele>
        <time>2016-09-15T11:25:06.000Z</time>
      </trkpt>
      <trkpt lat="47.5557" lon="3.64507">
        <ele>142</ele>
        <time>2016-09-15T11:25:06.000Z</time>
      </trkpt>
      <trkpt lat="47.55563" lon="3.6451">
        <ele>143</ele>
        <time>2016-09-15T11:25:06.000Z</time>
      </trkpt>
      <trkpt lat="47.5557" lon="3.64507">
        <ele>142</ele>
        <time>2016-09-15T11:25:06.000Z</time>
      </trkpt>
      <trkpt lat="47.55563" lon="3.6451">
        <ele>143</ele>
        <time>2016-09-15T11:25:06.000Z</time>
      </trkpt>
      <trkpt lat="47.55566" lon="3.64518">
        <ele>144</ele>
        <time>2016-09-15T11:25:06.000Z</time>
      </trkpt>
      <trkpt lat="47.55505" lon="3.6451">
        <ele>144</ele>
        <time>2016-09-15T11:25:06.000Z</time>
      </trkpt>
      <trkpt lat="47.5538" lon="3.64457">
        <ele>141</ele>
        <time>2016-09-15T11:25:06.000Z</time>
      </trkpt>
      <trkpt lat="47.55323" lon="3.6437">
        <ele>135</ele>
        <time>2016-09-15T11:25:06.000Z</time>
      </trkpt>
      <trkpt lat="47.552" lon="3.64307">
        <ele>138</ele>
        <time>2016-09-15T11:25:06.000Z</time>
      </trkpt>
      <trkpt lat="47.55154" lon="3.64339">
        <ele>143</ele>
        <time>2016-09-15T11:25:06.000Z</time>
      </trkpt>
      <trkpt lat="47.54993" lon="3.64471">
        <ele>145</ele>
        <time>2016-09-15T11:25:06.000Z</time>
      </trkpt>
      <trkpt lat="47.54945" lon="3.64543">
        <ele>138</ele>
        <time>2016-09-15T11:25:06.000Z</time>
      </trkpt>
      <trkpt lat="47.54951" lon="3.64623">
        <ele>134</ele>
        <time>2016-09-15T11:25:06.000Z</time>
      </trkpt>
      <trkpt lat="47.55036" lon="3.64665">
        <ele>136</ele>
        <time>2016-09-15T11:25:06.000Z</time>
      </trkpt>
      <trkpt lat="47.55089" lon="3.64776">
        <ele>135</ele>
        <time>2016-09-15T11:25:06.000Z</time>
      </trkpt>
      <trkpt lat="47.54962" lon="3.64842">
        <ele>138</ele>
        <time>2016-09-15T11:25:06.000Z</time>
      </trkpt>
      <trkpt lat="47.54856" lon="3.64836">
        <ele>143</ele>
        <time>2016-09-15T11:25:06.000Z</time>
      </trkpt>
      <trkpt lat="47.54776" lon="3.64808">
        <ele>148</ele>
        <time>2016-09-15T11:25:06.000Z</time>
      </trkpt>
      <trkpt lat="47.54703" lon="3.647">
        <ele>168</ele>
        <time>2016-09-15T11:25:06.000Z</time>
      </trkpt>
      <trkpt lat="47.54601" lon="3.64784">
        <ele>166</ele>
        <time>2016-09-15T11:25:06.000Z</time>
      </trkpt>
      <trkpt lat="47.54518" lon="3.64908">
        <ele>174</ele>
        <time>2016-09-15T11:25:06.000Z</time>
      </trkpt>
      <trkpt lat="47.54463" lon="3.65003">
        <ele>177</ele>
        <time>2016-09-15T11:25:06.000Z</time>
      </trkpt>
      <trkpt lat="47.54344" lon="3.65189">
        <ele>191</ele>
        <time>2016-09-15T11:25:06.000Z</time>
      </trkpt>
      <trkpt lat="47.5441" lon="3.6537">
        <ele>187</ele>
        <time>2016-09-15T11:25:06.000Z</time>
      </trkpt>
      <trkpt lat="47.54439" lon="3.65524">
        <ele>180</ele>
        <time>2016-09-15T11:25:06.000Z</time>
      </trkpt>
      <trkpt lat="47.54456" lon="3.65617">
        <ele>173</ele>
        <time>2016-09-15T11:25:06.000Z</time>
      </trkpt>
      <trkpt lat="47.54561" lon="3.65729">
        <ele>178</ele>
        <time>2016-09-15T11:25:06.000Z</time>
      </trkpt>
      <trkpt lat="47.54596" lon="3.65813">
        <ele>188</ele>
        <time>2016-09-15T11:25:06.000Z</time>
      </trkpt>
      <trkpt lat="47.54685" lon="3.65899">
        <ele>192</ele>
        <time>2016-09-15T11:25:06.000Z</time>
      </trkpt>
      <trkpt lat="47.54729" lon="3.65973">
        <ele>193</ele>
        <time>2016-09-15T11:25:06.000Z</time>
      </trkpt>
      <trkpt lat="47.5483" lon="3.66204">
        <ele>191</ele>
        <time>2016-09-15T11:25:06.000Z</time>
      </trkpt>
      <trkpt lat="47.54962" lon="3.664">
        <ele>184</ele>
        <time>2016-09-15T11:25:06.000Z</time>
      </trkpt>
      <trkpt lat="47.54995" lon="3.66507">
        <ele>179</ele>
        <time>2016-09-15T11:25:06.000Z</time>
      </trkpt>
      <trkpt lat="47.54989" lon="3.6665">
        <ele>174</ele>
        <time>2016-09-15T11:25:06.000Z</time>
      </trkpt>
      <trkpt lat="47.54996" lon="3.66773">
        <ele>167</ele>
        <time>2016-09-15T11:25:06.000Z</time>
      </trkpt>
      <trkpt lat="47.54992" lon="3.66933">
        <ele>169</ele>
        <time>2016-09-15T11:25:06.000Z</time>
      </trkpt>
      <trkpt lat="47.54995" lon="3.67122">
        <ele>168</ele>
        <time>2016-09-15T11:25:06.000Z</time>
      </trkpt>
      <trkpt lat="47.54961" lon="3.67264">
        <ele>172</ele>
        <time>2016-09-15T11:25:06.000Z</time>
      </trkpt>
      <trkpt lat="47.54993" lon="3.67414">
        <ele>172</ele>
        <time>2016-09-15T11:25:06.000Z</time>
      </trkpt>
      <trkpt lat="47.55025" lon="3.67565">
        <ele>178</ele>
        <time>2016-09-15T11:25:06.000Z</time>
      </trkpt>
      <trkpt lat="47.55045" lon="3.67602">
        <ele>178</ele>
        <time>2016-09-15T11:25:06.000Z</time>
      </trkpt>
      <trkpt lat="47.55057" lon="3.67748">
        <ele>176</ele>
        <time>2016-09-15T11:25:06.000Z</time>
      </trkpt>
      <trkpt lat="47.55087" lon="3.67882">
        <ele>168</ele>
        <time>2016-09-15T11:25:06.000Z</time>
      </trkpt>
      <trkpt lat="47.55093" lon="3.67958">
        <ele>163</ele>
        <time>2016-09-15T11:25:06.000Z</time>
      </trkpt>
      <trkpt lat="47.55098" lon="3.68098">
        <ele>162</ele>
        <time>2016-09-15T11:25:06.000Z</time>
      </trkpt>
      <trkpt lat="47.55158" lon="3.68315">
        <ele>174</ele>
        <time>2016-09-15T11:25:06.000Z</time>
      </trkpt>
      <trkpt lat="47.55211" lon="3.6844">
        <ele>180</ele>
        <time>2016-09-15T11:25:06.000Z</time>
      </trkpt>
      <trkpt lat="47.5525" lon="3.6852">
        <ele>186</ele>
        <time>2016-09-15T11:25:06.000Z</time>
      </trkpt>
      <trkpt lat="47.55279" lon="3.68571">
        <ele>188</ele>
        <time>2016-09-15T11:25:06.000Z</time>
      </trkpt>
      <trkpt lat="47.55171" lon="3.68601">
        <ele>195</ele>
        <time>2016-09-15T11:25:06.000Z</time>
      </trkpt>
      <trkpt lat="47.55012" lon="3.68943">
        <ele>239</ele>
        <time>2016-09-15T11:25:06.000Z</time>
      </trkpt>
      <trkpt lat="47.5494" lon="3.68885">
        <ele>243</ele>
        <time>2016-09-15T11:25:06.000Z</time>
      </trkpt>
      <trkpt lat="47.54936" lon="3.68884">
        <ele>243</ele>
        <time>2016-09-15T11:25:06.000Z</time>
      </trkpt>
      <trkpt lat="47.5493" lon="3.68879">
        <ele>243</ele>
        <time>2016-09-15T11:25:06.000Z</time>
      </trkpt>
      <trkpt lat="47.54915" lon="3.68872">
        <ele>244</ele>
        <time>2016-09-15T11:25:06.000Z</time>
      </trkpt>
      <trkpt lat="47.54908" lon="3.68875">
        <ele>245</ele>
        <time>2016-09-15T11:25:06.000Z</time>
      </trkpt>
      <trkpt lat="47.54901" lon="3.68872">
        <ele>246</ele>
        <time>2016-09-15T11:25:06.000Z</time>
      </trkpt>
      <trkpt lat="47.54894" lon="3.68875">
        <ele>246</ele>
        <time>2016-09-15T11:25:06.000Z</time>
      </trkpt>
      <trkpt lat="47.54888" lon="3.68872">
        <ele>247</ele>
        <time>2016-09-15T11:25:06.000Z</time>
      </trkpt>
      <trkpt lat="47.54881" lon="3.68871">
        <ele>247</ele>
        <time>2016-09-15T11:25:06.000Z</time>
      </trkpt>
      <trkpt lat="47.54888" lon="3.68872">
        <ele>247</ele>
        <time>2016-09-15T11:25:06.000Z</time>
      </trkpt>
      <trkpt lat="47.54881" lon="3.68868">
        <ele>247</ele>
        <time>2016-09-15T11:25:06.000Z</time>
      </trkpt>
      <trkpt lat="47.54874" lon="3.68868">
        <ele>248</ele>
        <time>2016-09-15T11:25:06.000Z</time>
      </trkpt>
      <trkpt lat="47.54856" lon="3.68861">
        <ele>248</ele>
        <time>2016-09-15T11:25:06.000Z</time>
      </trkpt>
      <trkpt lat="47.5487" lon="3.68864">
        <ele>248</ele>
        <time>2016-09-15T11:25:06.000Z</time>
      </trkpt>
      <trkpt lat="47.54856" lon="3.68864">
        <ele>248</ele>
        <time>2016-09-15T11:25:06.000Z</time>
      </trkpt>
      <trkpt lat="47.5485" lon="3.68864">
        <ele>249</ele>
        <time>2016-09-15T11:25:06.000Z</time>
      </trkpt>
      <trkpt lat="47.54843" lon="3.68864">
        <ele>249</ele>
        <time>2016-09-15T11:25:06.000Z</time>
      </trkpt>
      <trkpt lat="47.54836" lon="3.68857">
        <ele>249</ele>
        <time>2016-09-15T11:25:06.000Z</time>
      </trkpt>
      <trkpt lat="47.54829" lon="3.68853">
        <ele>249</ele>
        <time>2016-09-15T11:25:06.000Z</time>
      </trkpt>
      <trkpt lat="47.54823" lon="3.68853">
        <ele>249</ele>
        <time>2016-09-15T11:25:06.000Z</time>
      </trkpt>
      <trkpt lat="47.54816" lon="3.6885">
        <ele>248</ele>
        <time>2016-09-15T11:25:06.000Z</time>
      </trkpt>
      <trkpt lat="47.54823" lon="3.68853">
        <ele>249</ele>
        <time>2016-09-15T11:25:06.000Z</time>
      </trkpt>
      <trkpt lat="47.54822" lon="3.68842">
        <ele>247</ele>
        <time>2016-09-15T11:25:06.000Z</time>
      </trkpt>
      <trkpt lat="47.547" lon="3.68839">
        <ele>242</ele>
        <time>2016-09-15T11:25:06.000Z</time>
      </trkpt>
      <trkpt lat="47.54583" lon="3.68879">
        <ele>232</ele>
        <time>2016-09-15T11:25:06.000Z</time>
      </trkpt>
      <trkpt lat="47.54488" lon="3.68916">
        <ele>229</ele>
        <time>2016-09-15T11:25:06.000Z</time>
      </trkpt>
      <trkpt lat="47.54567" lon="3.69051">
        <ele>241</ele>
        <time>2016-09-15T11:25:06.000Z</time>
      </trkpt>
      <trkpt lat="47.54595" lon="3.69205">
        <ele>254</ele>
        <time>2016-09-15T11:25:06.000Z</time>
      </trkpt>
      <trkpt lat="47.54586" lon="3.69204">
        <ele>255</ele>
        <time>2016-09-15T11:25:06.000Z</time>
      </trkpt>
      <trkpt lat="47.5458" lon="3.69199">
        <ele>255</ele>
        <time>2016-09-15T11:25:06.000Z</time>
      </trkpt>
      <trkpt lat="47.54574" lon="3.69189">
        <ele>254</ele>
        <time>2016-09-15T11:25:06.000Z</time>
      </trkpt>
      <trkpt lat="47.54567" lon="3.69182">
        <ele>254</ele>
        <time>2016-09-15T11:25:06.000Z</time>
      </trkpt>
      <trkpt lat="47.5456" lon="3.69176">
        <ele>254</ele>
        <time>2016-09-15T11:25:06.000Z</time>
      </trkpt>
      <trkpt lat="47.54554" lon="3.69165">
        <ele>253</ele>
        <time>2016-09-15T11:25:06.000Z</time>
      </trkpt>
      <trkpt lat="47.54547" lon="3.69162">
        <ele>253</ele>
        <time>2016-09-15T11:25:06.000Z</time>
      </trkpt>
      <trkpt lat="47.54536" lon="3.69145">
        <ele>252</ele>
        <time>2016-09-15T11:25:06.000Z</time>
      </trkpt>
      <trkpt lat="47.54529" lon="3.69141">
        <ele>251</ele>
        <time>2016-09-15T11:25:06.000Z</time>
      </trkpt>
      <trkpt lat="47.54522" lon="3.69138">
        <ele>251</ele>
        <time>2016-09-15T11:25:06.000Z</time>
      </trkpt>
      <trkpt lat="47.54516" lon="3.69131">
        <ele>251</ele>
        <time>2016-09-15T11:25:06.000Z</time>
      </trkpt>
      <trkpt lat="47.54509" lon="3.69124">
        <ele>251</ele>
        <time>2016-09-15T11:25:06.000Z</time>
      </trkpt>
      <trkpt lat="47.54502" lon="3.69121">
        <ele>251</ele>
        <time>2016-09-15T11:25:06.000Z</time>
      </trkpt>
      <trkpt lat="47.54496" lon="3.69114">
        <ele>250</ele>
        <time>2016-09-15T11:25:06.000Z</time>
      </trkpt>
      <trkpt lat="47.54502" lon="3.69121">
        <ele>251</ele>
        <time>2016-09-15T11:25:06.000Z</time>
      </trkpt>
      <trkpt lat="47.54492" lon="3.69129">
        <ele>252</ele>
        <time>2016-09-15T11:25:06.000Z</time>
      </trkpt>
      <trkpt lat="47.54401" lon="3.69037">
        <ele>242</ele>
        <time>2016-09-15T11:25:06.000Z</time>
      </trkpt>
      <trkpt lat="47.544" lon="3.69025">
        <ele>241</ele>
        <time>2016-09-15T11:25:06.000Z</time>
      </trkpt>
      <trkpt lat="47.54313" lon="3.69028">
        <ele>236</ele>
        <time>2016-09-15T11:25:06.000Z</time>
      </trkpt>
      <trkpt lat="47.54203" lon="3.69062">
        <ele>236</ele>
        <time>2016-09-15T11:25:06.000Z</time>
      </trkpt>
      <trkpt lat="47.54113" lon="3.69053">
        <ele>233</ele>
        <time>2016-09-15T11:25:06.000Z</time>
      </trkpt>
      <trkpt lat="47.54079" lon="3.69049">
        <ele>231</ele>
        <time>2016-09-15T11:25:06.000Z</time>
      </trkpt>
      <trkpt lat="47.54061" lon="3.69115">
        <ele>239</ele>
        <time>2016-09-15T11:25:06.000Z</time>
      </trkpt>
      <trkpt lat="47.53999" lon="3.69216">
        <ele>244</ele>
        <time>2016-09-15T11:25:06.000Z</time>
      </trkpt>
      <trkpt lat="47.53946" lon="3.69278">
        <ele>245</ele>
        <time>2016-09-15T11:25:06.000Z</time>
      </trkpt>
      <trkpt lat="47.53887" lon="3.69306">
        <ele>240</ele>
        <time>2016-09-15T11:25:06.000Z</time>
      </trkpt>
      <trkpt lat="47.53815" lon="3.69155">
        <ele>223</ele>
        <time>2016-09-15T11:25:06.000Z</time>
      </trkpt>
      <trkpt lat="47.53784" lon="3.69118">
        <ele>220</ele>
        <time>2016-09-15T11:25:06.000Z</time>
      </trkpt>
      <trkpt lat="47.53789" lon="3.69031">
        <ele>218</ele>
        <time>2016-09-15T11:25:06.000Z</time>
      </trkpt>
      <trkpt lat="47.53583" lon="3.69182">
        <ele>207</ele>
        <time>2016-09-15T11:25:06.000Z</time>
      </trkpt>
      <trkpt lat="47.53554" lon="3.69138">
        <ele>205</ele>
        <time>2016-09-15T11:25:06.000Z</time>
      </trkpt>
    </trkseg>
  </trk>
</gpx>